Volver al catálogo

CZ-6A DEB

ActivoSSO
NORAD 54637·DEBRIS·🇨🇳 China

Lanzado Nov 11, 2022 desde Taiyuan Satellite Launch Center

Loading…

Próximos Pases (próximas 24 horas)

TLE

ActualizadoSource: Space-Track

Época: Sep 14, 2026, 00:00 UTC

1 54637U 22151PP  26257.00040787  .00002746  00000-0  12900-2 0  9997
2 54637  98.8408 262.8103 0062866  86.7592 274.0774 14.19830189196631

Sigue CZ-6A DEB en tiempo real con AllMySat

Download on the App Store